OPTUS D1

Last updated on Sun Oct 06 2024 00:02:38 GMT+0000 (Coordinated Universal Time)

1 29495U 06043B 24279.54394438 -.00000172 00000+0 00000+0 0 9995 2 29495 1.4251 87.3418 0003629 104.3411 170.8858 1.00271810 65906
UTC large
Height (km)
Speed (km/s)
/
Latitude / Longitude
Inclination (degrees)
Orbital Period (minutes)
Azimuth
Elevation
Range (km)
Doppler Factor

Next 0 passes for location: London (51.5072 / 0.1276)

Sorry there are no passes over London.